Location: Strawberry
(45.6646°N, 111.9596°W)
Time: 14:44:02
(UTC+00:00)

Tiangong - Pass Details

Date: 23 August 2022
Orbit: 377 x 382 km, 41.5° (Epoch: 27 September)

Event Time Altitude Azimuth Distance (km) Brightness Sun altitude
Rises 04:20:33 0° 267° (W) 2,240 2.5 -18.7°
Reaches altitude 10° 04:22:51 10° 253° (WSW) 1,385 1.1 -19.0°
Enters shadow 04:24:37 21° 222° (SW) 905 -0.3 -19.2°
